• Processing (Info)

  • MPEC 2022-P09 : 2022 OF5

    The following Minor Planet Electronic Circular may be linked-to from your own Web pages, but must not otherwise be redistributed electronically.

    A form allowing access to any MPEC is at the bottom of this page.


    Read MPEC 2022-P08 Read MPEC 2022-P10


    M.P.E.C. 2022-P09                                Issued 2022 August 1, 17:50 UT
    
         The Minor Planet Electronic Circulars contain information on unusual
             minor planets and routine data on comets.  They are published
        on behalf of Division F of the International Astronomical Union by the
              Minor Planet Center, Smithsonian Astrophysical Observatory,
                              Cambridge, MA 02138, U.S.A.
    
                 Prepared using the Tamkin Foundation Computer Network
    
                                  MPC@CFA.HARVARD.EDU
                URL https://www.minorplanetcenter.net/    ISSN 1523-6714
    
                                    2022 OF5                                 
    
    
    Observations:
         K22O05F* C2022 07 23.46390621 17 21.448-32 01 46.79         21.08wUEP009F52
         K22O05F  C2022 07 23.47537521 17 18.657-32 01 34.19         21.45wUEP009F52
         K22O05F  C2022 07 23.49822621 17 13.038-32 01 07.51         21.43wUEP009F52
         K22O05F  C2022 07 23.60342221 16 47.453-31 59 03.86         21.21GVEP009F52
         K22O05F  C2022 07 23.60405221 16 47.299-31 59 03.07         20.78GVEP009F52
         K22O05F 6C2022 07 25.02529521 11 37.579-31 32 38.58         20.9 GVEP009Z84
         K22O05F 6C2022 07 25.03490421 11 35.431-31 32 29.04         20.6 GVEP009Z84
         K22O05F ^C2022 07 28.45174221 00 42.174-30 31 54.57         21.57GVEP009568
         K22O05F ^C2022 07 28.45272221 00 41.989-30 31 53.59         21.25GVEP009568
         K22O05F ^C2022 07 28.45370421 00 41.808-30 31 52.57         21.48GVEP009568
    
    Observer details:
    568 Mauna Kea.  Observers R. Wainscoat, C. Cunningham, H. Flewelling.
        Measurers R. Weryk, R. Wainscoat.  3.6-m Canada-France-Hawaii Telescope +
        CCD.
    F52 Pan-STARRS 2, Haleakala.  Observers J. Bulger, T. Lowe, A. Schultz, I.
        Smith, K. Chambers, T. Dukes.  Measurers K. Chambers, S. Chastel, T. de
        Boer, J. Fairlamb, H. Gao, M. Huber, C.-C. Lin, E. Magnier, Y.
        Ramanjooloo, R. Wainscoat, R. Weryk.  1.8-m Ritchey-Chretien + CCD.
    Z84 Calar Alto-Schmidt.  Observers M. Micheli, R. Kresken.  Measurer R.
        Kresken.  0.8-m f/3 Schmidt + CCD.
    
    Orbital elements:
    2022 OF5                                                 Earth MOID = 0.0237 AU
    Epoch 2022 Aug. 9.0 TT = JDT 2459800.5                  MPC                     
    M  31.85421              (2000.0)            P               Q                  
    n   0.35920133     Peri.  223.85251     -0.84562732     +0.53355543             
    a   1.9599459      Node   348.36522     -0.46649837     -0.75264356             
    e   0.5983058      Incl.    4.34116     -0.25941030     -0.38580601             
    P   2.74           H   22.91          G   0.15           U   9                  
    Residuals in seconds of arc
    220723 F52  0.3-  0.2+    220723 F52  0.1+  0.2-    220728 568  0.0   0.0
    220723 F52  0.1+  0.2-    220725 Z84  0.0   0.3+    220728 568  0.0   0.0
    220723 F52  0.0   0.4+    220725 Z84  0.1-  0.7-
    220723 F52  0.2+  0.2-    220728 568  0.0   0.0
    
    Ephemeris:
    2022 OF5                 a,e,i = 1.96, 0.60, 4                   q = 0.7873
    Date    TT    R. A. (2000) Decl.     Delta      r    Elong.  Phase     V
    2022 07 02    00 08 17.2 -37 36 19   0.1267  1.0675   110.4    63.2    20.8
    ...
    2022 07 17    21 47 28.7 -34 11 26   0.2096  1.2024   150.0    25.0    21.1
    ...
    2022 07 25    21 11 42.8 -31 32 38   0.2695  1.2758   162.8    13.6    21.4
    ...
    2022 07 31    20 53 52.1 -29 49 30   0.3208  1.3307   168.1     9.0    21.7
    2022 08 01    20 51 27.1 -29 33 41   0.3298  1.3398   168.4     8.7    21.7
    2022 08 02    20 49 10.4 -29 18 15   0.3391  1.3490   168.6     8.6    21.8
    ...
    2022 08 08    20 38 05.1 -27 52 59   0.3976  1.4034   166.2     9.9    22.3
    ...
    2022 08 16    20 28 49.8 -26 16 21   0.4841  1.4752   159.1    14.2    23.0
    ...
    2022 08 31    20 23 10.2 -23 52 39   0.6715  1.6061   144.9    21.2    24.1
    
    M. P. C. Staff               (C) Copyright 2022 MPC           M.P.E.C. 2022-P09
    


    Read MPEC 2022-P08 Read MPEC 2022-P10


    MPEC number:

    Enter an MPEC number in one of the following forms:

    • 1997-B01 (the full form)
    • J97B01 (the packed version of the full form)
    • B01 (the abbreviated form)